Year,Month,Day,Hour,Minute,Value (Times are PST for barometer in hPa)
2022,07,23,12,58,967.69
2022,07,23,12,59,967.69
2022,07,23,13,00,967.69
2022,07,23,13,01,967.81
2022,07,23,13,02,968.85
2022,07,23,13,03,968.85
2022,07,23,13,04,968.89
2022,07,23,13,05,969.54
2022,07,23,13,06,969.10
2022,07,23,13,07,968.57
2022,07,23,13,08,967.97
2022,07,23,13,09,967.97
2022,07,23,13,10,967.97
2022,07,23,13,11,967.97
2022,07,23,13,12,967.81
2022,07,23,13,13,964.71
2022,07,23,13,14,964.59
2022,07,23,13,15,963.48
2022,07,23,13,16,963.77
2022,07,23,13,17,963.22
2022,07,23,13,18,963.44
2022,07,23,13,19,962.98
2022,07,23,13,20,963.53
2022,07,23,13,21,963.41
2022,07,23,13,22,963.22
2022,07,23,13,23,963.22
2022,07,23,13,24,963.27
2022,07,23,13,25,964.15
2022,07,23,13,26,964.27
2022,07,23,13,27,964.55
2022,07,23,13,28,967.01
2022,07,23,13,29,966.65
2022,07,23,13,30,966.79
2022,07,23,13,31,968.00
2022,07,23,13,32,968.05
2022,07,23,13,33,968.99
2022,07,23,13,34,969.04
2022,07,23,13,35,968.71
2022,07,23,13,36,968.71
2022,07,23,13,37,968.72
2022,07,23,13,38,968.86
2022,07,23,13,39,968.69
2022,07,23,13,40,968.56
2022,07,23,13,41,968.71
2022,07,23,13,42,968.74
2022,07,23,13,43,969.04
2022,07,23,13,44,969.20
2022,07,23,13,45,969.45
2022,07,23,13,46,969.32
2022,07,23,13,47,969.27
2022,07,23,13,48,969.03
2022,07,23,13,49,968.86
2022,07,23,13,50,968.71
2022,07,23,13,51,968.72
2022,07,23,13,52,968.72
2022,07,23,13,53,968.17
2022,07,23,13,54,968.17
2022,07,23,13,55,968.17
2022,07,23,13,56,968.16
2022,07,23,13,57,968.07
2022,07,23,13,58,967.85
2022,07,23,13,59,965.83
2022,07,23,14,00,965.83
2022,07,23,14,01,965.83
2022,07,23,14,02,965.83
2022,07,23,14,03,965.83
2022,07,23,14,04,965.83
2022,07,23,14,05,965.83
2022,07,23,14,06,965.78
2022,07,23,14,07,965.29
2022,07,23,14,08,965.18
2022,07,23,14,09,964.15
2022,07,23,14,10,963.94
2022,07,23,14,11,963.80
2022,07,23,14,12,962.58
2022,07,23,14,13,962.68
2022,07,23,14,14,964.54
2022,07,23,14,15,965.09
2022,07,23,14,16,964.79
2022,07,23,14,17,964.55
2022,07,23,14,18,964.55
2022,07,23,14,19,964.55
2022,07,23,14,20,964.55
2022,07,23,14,21,964.55
2022,07,23,14,22,964.43
2022,07,23,14,23,963.48
2022,07,23,14,24,963.83
2022,07,23,14,25,964.14
2022,07,23,14,26,964.37
2022,07,23,14,27,964.27
2022,07,23,14,28,964.27
2022,07,23,14,29,964.27
2022,07,23,14,30,964.27
2022,07,23,14,31,964.27
2022,07,23,14,32,964.27
2022,07,23,14,33,964.27
2022,07,23,14,34,964.27
2022,07,23,14,35,964.27
2022,07,23,14,36,964.27
2022,07,23,14,37,964.27
2022,07,23,14,38,964.27
2022,07,23,14,39,964.27
2022,07,23,14,40,964.27
2022,07,23,14,41,964.27
2022,07,23,14,42,964.27
2022,07,23,14,43,964.27
2022,07,23,14,44,964.27
2022,07,23,14,45,964.27
2022,07,23,14,46,964.27
2022,07,23,14,47,964.27
2022,07,23,14,48,964.27
2022,07,23,14,49,964.27
2022,07,23,14,50,964.27
2022,07,23,14,51,964.27
2022,07,23,14,52,964.27
2022,07,23,14,53,964.27
2022,07,23,14,54,964.27
2022,07,23,14,55,964.27
2022,07,23,14,56,964.27
2022,07,23,14,57,964.27
2022,07,23,14,58,964.27
2022,07,23,14,59,964.27
2022,07,23,15,00,964.27
2022,07,23,15,01,964.71
2022,07,23,15,02,968.68
2022,07,23,15,03,968.68
2022,07,23,15,04,968.68
2022,07,23,15,05,968.68
2022,07,23,15,06,968.68
2022,07,23,15,07,968.68
2022,07,23,15,08,968.68
2022,07,23,15,09,968.68
2022,07,23,15,10,968.68
2022,07,23,15,11,968.68
2022,07,23,15,12,968.68
2022,07,23,15,13,969.66
2022,07,23,15,14,978.53
2022,07,23,15,15,978.53
2022,07,23,15,16,978.53
2022,07,23,15,17,978.53
2022,07,23,15,18,977.56
2022,07,23,15,19,968.84
2022,07,23,15,20,968.68
2022,07,23,15,21,968.41
2022,07,23,15,22,968.37
2022,07,23,15,23,968.98
2022,07,23,15,24,968.98
2022,07,23,15,25,968.98
2022,07,23,15,26,968.98
2022,07,23,15,27,968.45
2022,07,23,15,28,963.63
2022,07,23,15,29,963.63
2022,07,23,15,30,963.63
2022,07,23,15,31,964.22
2022,07,23,15,32,969.56
2022,07,23,15,33,969.56
2022,07,23,15,34,969.56
2022,07,23,15,35,969.56
2022,07,23,15,36,969.56
2022,07,23,15,37,969.56
2022,07,23,15,38,969.56
2022,07,23,15,39,969.56
2022,07,23,15,40,969.56
2022,07,23,15,41,969.56
2022,07,23,15,42,969.56
2022,07,23,15,43,969.56
2022,07,23,15,44,969.56
2022,07,23,15,45,969.56
2022,07,23,15,46,969.56
2022,07,23,15,47,969.56
2022,07,23,15,48,969.56
2022,07,23,15,49,969.56
2022,07,23,15,50,969.56
2022,07,23,15,51,969.56
2022,07,23,15,52,969.56
2022,07,23,15,53,969.56
2022,07,23,15,54,969.56
2022,07,23,15,55,969.56
2022,07,23,15,56,969.56
2022,07,23,15,57,969.56
2022,07,23,15,58,969.56
2022,07,23,15,59,969.56
2022,07,23,16,00,969.56
2022,07,23,16,01,969.56
2022,07,23,16,02,969.56
2022,07,23,16,03,969.56
2022,07,23,16,04,969.56
2022,07,23,16,05,969.56
2022,07,23,16,06,969.56
2022,07,23,16,07,969.56
2022,07,23,16,08,969.56
2022,07,23,16,09,969.56
2022,07,23,16,10,969.56
2022,07,23,16,11,969.56
2022,07,23,16,12,969.56
2022,07,23,16,13,969.56
2022,07,23,16,14,969.56
2022,07,23,16,15,969.56
2022,07,23,16,16,969.56
2022,07,23,16,17,969.56
2022,07,23,16,18,969.56
2022,07,23,16,19,969.56
2022,07,23,16,20,969.56
2022,07,23,16,21,969.56
2022,07,23,16,22,969.56
2022,07,23,16,23,969.56
2022,07,23,16,24,969.56
2022,07,23,16,25,969.56
2022,07,23,16,26,969.56
2022,07,23,16,27,969.56
2022,07,23,16,28,969.56
2022,07,23,16,29,969.56
2022,07,23,16,30,969.56
2022,07,23,16,31,969.56
2022,07,23,16,32,969.56
2022,07,23,16,33,969.56
2022,07,23,16,34,969.56
2022,07,23,16,35,969.56
2022,07,23,16,36,969.56
2022,07,23,16,37,969.56
2022,07,23,16,38,969.56
2022,07,23,16,39,969.56
2022,07,23,16,40,969.56
2022,07,23,16,41,969.56
2022,07,23,16,42,969.56
2022,07,23,16,43,969.56
2022,07,23,16,44,969.56
2022,07,23,16,45,969.56
2022,07,23,16,46,969.56
2022,07,23,16,47,969.56
2022,07,23,16,48,969.56
2022,07,23,16,49,969.56
2022,07,23,16,50,969.56
2022,07,23,16,51,969.56
2022,07,23,16,52,969.56
2022,07,23,16,53,969.56
2022,07,23,16,54,969.56
2022,07,23,16,55,969.56
2022,07,23,16,56,969.56
2022,07,23,16,57,969.56
2022,07,23,16,58,969.56
2022,07,23,16,59,969.56
2022,07,23,17,00,969.56
2022,07,23,17,01,969.56
2022,07,23,17,02,969.56
2022,07,23,17,03,969.56
2022,07,23,17,04,969.56
2022,07,23,17,05,969.56
2022,07,23,17,06,969.56
2022,07,23,17,07,969.56
2022,07,23,17,08,969.56
2022,07,23,17,09,969.56
2022,07,23,17,10,969.56
2022,07,23,17,11,969.56
2022,07,23,17,12,969.56
2022,07,23,17,13,969.56
2022,07,23,17,14,969.56
2022,07,23,17,15,969.56
2022,07,23,17,16,969.56
2022,07,23,17,17,969.56
2022,07,23,17,18,969.56
2022,07,23,17,19,969.56
2022,07,23,17,20,969.56
2022,07,23,17,21,969.56
2022,07,23,17,22,969.56
2022,07,23,17,23,969.56
2022,07,23,17,24,969.56
2022,07,23,17,25,969.56
2022,07,23,17,26,969.56
2022,07,23,17,27,969.56
2022,07,23,17,28,969.56
2022,07,23,17,29,969.56
2022,07,23,17,30,969.56
2022,07,23,17,31,969.56
2022,07,23,17,32,969.56
2022,07,23,17,33,969.56
2022,07,23,17,34,969.56
2022,07,23,17,35,969.56
2022,07,23,17,36,969.56
2022,07,23,17,37,969.56
2022,07,23,17,38,969.56
2022,07,23,17,39,969.56
2022,07,23,17,40,969.56
2022,07,23,17,41,969.56
2022,07,23,17,42,969.56
2022,07,23,17,43,969.56
2022,07,23,17,44,969.56
2022,07,23,17,45,969.56
2022,07,23,17,46,969.56
2022,07,23,17,47,969.56
2022,07,23,17,48,969.56
2022,07,23,17,49,969.56
2022,07,23,17,50,969.56
2022,07,23,17,51,969.56
2022,07,23,17,52,969.56
2022,07,23,17,53,969.56
2022,07,23,17,54,969.56
2022,07,23,17,55,969.56
2022,07,23,17,56,969.56
2022,07,23,17,57,969.56
2022,07,23,17,58,969.56
2022,07,23,17,59,969.56
2022,07,23,18,00,969.56
2022,07,23,18,01,969.56
2022,07,23,18,02,969.56
2022,07,23,18,03,969.56
2022,07,23,18,04,969.56
2022,07,23,18,05,969.56
2022,07,23,18,06,969.56
2022,07,23,18,07,969.56
2022,07,23,18,08,969.56
2022,07,23,18,09,969.56
2022,07,23,18,10,969.56
2022,07,23,18,11,969.56
2022,07,23,18,12,969.56
2022,07,23,18,13,969.56
2022,07,23,18,14,969.56
2022,07,23,18,15,969.56
2022,07,23,18,16,969.56
2022,07,23,18,17,969.56
2022,07,23,18,18,969.56
2022,07,23,18,19,969.56
2022,07,23,18,20,969.56
2022,07,23,18,21,969.56
2022,07,23,18,22,969.56
2022,07,23,18,23,969.56
2022,07,23,18,24,969.56
2022,07,23,18,25,969.56
2022,07,23,18,26,969.56
2022,07,23,18,27,969.56
2022,07,23,18,28,969.56
2022,07,23,18,29,969.56
2022,07,23,18,30,969.56
2022,07,23,18,31,969.56
2022,07,23,18,32,969.56
2022,07,23,18,33,969.56
2022,07,23,18,34,969.56
2022,07,23,18,35,969.56
2022,07,23,18,36,969.56
2022,07,23,18,37,969.56
2022,07,23,18,38,969.56
2022,07,23,18,39,969.56
2022,07,23,18,40,969.56
2022,07,23,18,41,969.56
2022,07,23,18,42,969.56
2022,07,23,18,43,969.56
2022,07,23,18,44,969.56
2022,07,23,18,45,969.56
2022,07,23,18,46,969.56
2022,07,23,18,47,969.56
2022,07,23,18,48,969.56
2022,07,23,18,49,969.56
2022,07,23,18,50,969.56
2022,07,23,18,51,969.56
2022,07,23,18,52,969.56
2022,07,23,18,53,969.56
2022,07,23,18,54,969.56
2022,07,23,18,55,969.56
2022,07,23,18,56,969.56
2022,07,23,18,57,969.56
2022,07,23,18,58,969.56
2022,07,23,18,59,969.56
2022,07,23,19,00,969.56
2022,07,23,19,01,969.56
2022,07,23,19,02,969.56
2022,07,23,19,03,969.56
2022,07,23,19,04,969.56
2022,07,23,19,05,969.56
2022,07,23,19,06,969.56
2022,07,23,19,07,969.56
2022,07,23,19,08,969.56
2022,07,23,19,09,969.56
2022,07,23,19,10,969.56
2022,07,23,19,11,969.56
2022,07,23,19,12,969.56
2022,07,23,19,13,969.56
2022,07,23,19,14,969.56
2022,07,23,19,15,969.56
2022,07,23,19,16,969.56
2022,07,23,19,17,969.56
2022,07,23,19,18,969.56
2022,07,23,19,19,969.56
2022,07,23,19,20,969.56
2022,07,23,19,21,969.56
2022,07,23,19,22,969.56
2022,07,23,19,23,969.56
2022,07,23,19,24,969.56
2022,07,23,19,25,969.56
2022,07,23,19,26,969.56
2022,07,23,19,27,969.56
2022,07,23,19,28,969.56
2022,07,23,19,29,969.56
2022,07,23,19,30,969.56
2022,07,23,19,31,969.56
2022,07,23,19,32,969.56
2022,07,23,19,33,969.56
2022,07,23,19,34,969.56
2022,07,23,19,35,969.56
2022,07,23,19,36,969.56
2022,07,23,19,37,969.56
2022,07,23,19,38,969.56
2022,07,23,19,39,969.56
2022,07,23,19,40,969.56
2022,07,23,19,41,969.56
2022,07,23,19,42,969.56
2022,07,23,19,43,969.56
2022,07,23,19,44,969.56
2022,07,23,19,45,969.56
2022,07,23,19,46,969.56
2022,07,23,19,47,969.56
2022,07,23,19,48,969.56
2022,07,23,19,49,969.56
2022,07,23,19,50,969.56
2022,07,23,19,51,969.56
2022,07,23,19,52,969.56
2022,07,23,19,53,969.56
2022,07,23,19,54,969.56
2022,07,23,19,55,969.56
2022,07,23,19,56,969.56
2022,07,23,19,57,969.56
2022,07,23,19,58,969.56
2022,07,23,19,59,969.56
2022,07,23,20,00,969.56
2022,07,23,20,01,969.56
2022,07,23,20,02,969.56
2022,07,23,20,03,969.56
2022,07,23,20,04,969.56
2022,07,23,20,05,969.56
2022,07,23,20,06,969.56
2022,07,23,20,07,969.56
2022,07,23,20,08,969.56
2022,07,23,20,09,969.56
2022,07,23,20,10,969.56
2022,07,23,20,11,969.56
2022,07,23,20,12,969.56
2022,07,23,20,13,969.56
2022,07,23,20,14,969.56
2022,07,23,20,15,969.56
2022,07,23,20,16,969.56
2022,07,23,20,17,969.56
2022,07,23,20,18,969.56
2022,07,23,20,19,969.56
2022,07,23,20,20,969.56
2022,07,23,20,21,969.56
2022,07,23,20,22,969.56
2022,07,23,20,23,969.56
2022,07,23,20,24,969.56
2022,07,23,20,25,969.56
2022,07,23,20,26,969.56
2022,07,23,20,27,969.56
2022,07,23,20,28,969.56
2022,07,23,20,29,969.56
2022,07,23,20,30,969.56
